SCP
-0 -0 0 0 0 0 0 0 0 0 0 0 0 0 0 0 0 0 0 0 0 0 0 0 0 0 0 0 0 0 0 0 0 0 0 0 0 0 0 0 0 0 0 0
-0 0 0 0 0 0 0 0 0 0 0 0 0 0 0 0 0 0 0 0 0 0 0 0 0 0 0 0 0 0 0 0 0 0 0 0 0 0 0 0 0 0 0 0
0 0 0 0 0 0 0 0 0 0 0 0 0 0 0 0 0 0 0 0 0 0 0 0 0 0 0 0 0 0 0 0 0 0 0 0 0 0 0 0 0 0 0 0
0 0 0 0 0 0 0 0 0 0 0 0 0 0 0 0 0 0 0 0 0 0 0 0 0 0 0 0 0 0 0 0 0 0 0 0 0 0 0 0 0 0 0 0
0 0 0 0 0 0 0 0 0 0 0 0 0 0 0 0 0 0 0 0 0 0 0 0 0 0 0 0 0 0 0 0 0 0 0 0 0 0 0 0 0 0 0 0
0 0 0 0 0 0 0 0 0 0 0 0 0 0 0 0 0 0 0 0 0 0 0 0 0 0 0 0 0 0 0 0 0 0 0 0 0 0 0 0 0 0 0 0
0 0 0 0 0 0 0 0 0 0 0 0 0 0 0 0 0 0 0 0 0 0 0 0 0 0 0 0 0 0 0 0 0 0 0 0 0 0 0 0 0 0 0 0
0 0 0 0 0 0 0 0 0 0 0 0 0 0 0 0 0 0 0 0 0 0 0 0 0 0 0 0 0 -0 -0 0 0 0 0 0 0 0 0 0 0 0 0 0
0 0 0 0 0 0 0 0 0 0 0 0 0 0 0 0 0 0 0 0 0 0 0 0 0 0 0 0 0 -0 -0 0 0 0 0 0 0 0 0 0 0 0 0 0
0 0 0 0 0 0 0 0 0 0 0 0 0 0 0 0 0 0 0 0 0 0 0 0 0 0 0 0 -0 -0 0 0 0 0 0 0 0 0 0 0 0 0 0 0
0 0 0 0 0 0 0 0 0 0 0 0 0 0 0 0 0 0 0 0 0 0 0 0 0 -0 -0 -0 -0 0 0 0 0 0 0 0 0 0 0 0 0 0 0 0
0 0 0 0 0 0 0 0 0 0 0 0 0 0 0 0 0 0 0 0 0 0 0 -0 -0 -0 -0 -0 -0 0 0 0 0 0 0 0 0 0 0 0 0 0 0 0
0 0 0 0 0 0 0 0 0 0 0 0 0 0 0 0 0 0 0 0 0 0 0 -0 -0 -0 -0 -0 -0 -0 0 0 0 0 0 0 0 0 0 0 0 0 0 0
0 0 0 0 0 0 0 0 0 0 0 0 0 0 0 0 0 -0 0 0 0 0 0 -0 -0 -0 -0 -0 -0 0 0 0 0 0 0 0 0 0 0 0 0 0 0 0
0 0 0 0 0 0 0 0 0 0 0 0 0 0 0 0 0 0 0 0 0 0 0 -0 -0 -0 -0 -0 -0 0 0 0 0 0 0 0 0 0 0 0 0 0 0 0
0 0 0 0 0 0 0 0 0 0 0 0 0 0 0 0 0 0 0 0 0 0 0 0 0 0 0 0 0 0 0 0 0 0 0 0 0 0 0 0 0 0 0 0
0 0 0 0 0 0 0 0 0 0 0 0 0 0 0 0 0 0 0 0 0 0 0 0 0 0 0 0 0 0 0 0 0 0 0 0 0 0 0 0 0 0 0 0
0 0 0 0 0 0 0 0 0 0 0 0 0 0 0 0 0 0 0 0 0 0 0 0 0 0 0 0 0 0 0 0 0 0 0 0 0 0 0 0 0 0 0 0
0 0 0 0 0 0 0 0 0 0 0 0 0 0 0 0 0 0 0 0 0 0 0 0 0 0 0 0 0 0 0 0 0 0 0 0 0 0 0 0 0 0 0 0
0 0 0 0 0 0 0 0 0 0 0 0 0 0 0 0 0 0 0 0 0 0 0 0 0 0 0 0 0 0 0 0 0 0 0 0 0 0 0 0 0 0 0 0
0 0 0 0 0 0 0 0 0 0 0 0 0 0 0 0 0 0 0 0 0 0 0 0 0 0 0 0 0 0 0 0 0 0 0 0 0 0 0 0 0 0 0 0
0 0 0 0 0 0 0 0 0 0 0 0 0 0 0 0 0 0 0 0 0 0 0 0 0 0 0 0 0 0 0 0 0 0 0 0 0 0 0 0 0 0 0 0
0 0 0 0 0 0 0 0 0 0 0 0 0 0 0 0 0 0 0 0 0 0 0 0 0 0 0 0 0 0 0 0 0 0 0 0 0 0 0 0 0 0 0 0
0 0 0 0 0 0 0 0 0 0 0 0 0 0 0 0 0 0 0 0 0 0 0 0 0 0 0 0 0 0 0 0 0 0 0 0 0 0 0 0 0 0 0 0
0 0 0 0 0 0 0 0 0 0 0 0 0 0 0 0 0 0 0 0 0 0 0 0 0 0 0 0 0 0 0 0 0 0 0 0 0 0 0 0 0 0 0 0
0 0 0 0 0 0 0 0 0 0 0 0 0 0 0 0 0 0 0 0 0 0 0 0 0 0 0 0 0 0 0 0 0 0 0 0 0 0 0 0 0 0 0 0
Wind_Speed
1 2 3 6 6 5 3 3 2 2 1 2 2 2 3 3 3 4 4 4 4 4 4 5 5 5 5 4 5 4 4 3 3 3 3 3 2 2 2 3 4 3 3 3
2 5 7 4 4 4 3 3 2 1 2 2 2 0 1 3 4 5 6 6 6 5 4 5 5 4 4 4 4 4 4 3 3 2 2 2 2 2 2 2 3 4 3 2
6 6 1 3 3 3 3 5 5 4 2 3 2 3 1 2 2 4 5 6 7 8 8 7 6 5 4 4 4 4 3 3 3 3 3 3 3 3 3 3 3 4 3 3
6 5 2 2 3 5 3 4 6 6 4 0 1 2 4 3 4 6 8 8 8 8 7 7 7 6 6 5 4 4 4 3 3 3 4 4 3 2 1 1 2 3 4 4
6 3 3 4 4 5 3 4 5 4 4 2 1 1 6 2 5 8 9 10 10 9 9 9 9 8 6 6 5 4 4 3 3 3 4 4 3 2 1 1 3 3 3 4
5 2 3 3 2 5 7 7 7 6 5 1 2 2 6 5 8 7 9 11 10 10 9 8 7 6 6 5 5 5 4 2 2 3 4 4 4 3 2 2 2 2 2 2
3 2 2 4 5 3 5 6 4 4 3 4 1 2 9 7 7 8 10 12 10 10 10 9 9 9 8 7 7 5 5 3 2 3 3 3 3 3 3 2 1 1 1 1
3 5 4 5 7 7 5 7 7 4 4 4 1 5 8 4 4 5 7 8 9 9 9 10 11 10 10 9 8 7 6 4 3 3 3 2 2 2 1 1 1 1 1 1
6 6 2 3 3 9 7 4 5 7 2 1 4 6 8 1 1 4 6 7 9 10 10 10 10 10 10 10 9 8 7 5 4 4 3 2 2 2 2 1 1 1 1 1
9 4 2 1 5 4 5 8 6 6 5 2 4 4 5 5 6 6 7 9 9 9 9 9 9 9 9 9 7 7 6 6 4 4 3 3 2 2 2 1 1 1 1 1
5 5 2 1 3 5 5 4 5 5 5 5 3 8 8 9 9 10 11 10 10 11 11 10 8 8 8 7 7 7 6 5 4 4 3 2 2 2 2 2 2 2 1 1
4 6 2 4 2 3 5 7 8 6 4 4 4 10 5 6 8 9 10 9 9 10 9 8 8 8 7 7 7 7 6 6 5 4 4 3 2 2 2 2 2 2 2 2
6 6 2 5 5 1 2 4 4 6 6 5 4 9 3 1 4 6 8 9 8 8 8 7 7 8 8 8 8 7 7 6 5 5 4 3 3 3 3 3 2 2 2 2
7 5 7 9 8 5 4 5 6 6 5 5 8 8 5 3 5 7 7 8 9 9 9 9 8 8 8 8 8 7 7 6 6 5 5 4 4 4 3 3 3 2 2 3
5 4 4 5 5 3 4 5 8 7 8 9 8 8 11 9 9 8 8 8 9 9 9 10 10 9 8 7 7 7 7 6 6 6 5 5 4 3 3 3 3 3 3 3
3 3 2 2 3 4 3 4 7 6 5 6 4 9 8 4 4 6 8 11 11 11 12 11 10 10 10 10 9 8 7 7 6 6 6 5 4 3 3 3 3 3 3 3
2 4 4 3 2 1 4 7 7 5 6 8 9 11 3 5 9 11 12 13 13 13 12 13 13 12 11 11 10 10 9 7 6 6 5 5 4 4 4 3 3 3 3 3
5 5 4 2 1 5 9 3 5 6 5 7 7 6 6 8 6 6 8 13 12 12 12 12 11 10 9 8 8 7 7 7 7 6 5 5 5 4 4 3 4 4 3 3
4 7 5 4 3 6 6 3 4 5 5 6 7 5 2 3 4 1 6 9 12 13 12 11 11 10 9 9 8 8 7 7 7 7 6 6 5 5 4 4 5 3 3 3
4 4 5 4 4 6 8 3 1 3 5 4 5 5 6 7 3 6 6 7 8 7 7 8 8 7 8 8 9 9 8 7 8 8 7 6 6 6 5 5 4 3 3 4
2 3 3 4 4 8 7 2 3 4 7 3 4 6 8 8 7 3 5 6 6 7 7 8 9 9 9 9 10 9 8 9 9 7 5 5 5 5 5 4 3 3 3 3
5 4 4 4 3 8 3 2 5 7 3 2 2 5 7 5 2 3 5 6 7 7 7 9 9 8 7 9 10 9 9 8 6 5 5 5 5 5 4 4 4 3 3 4
5 6 6 7 8 5 2 4 4 3 3 3 3 3 5 4 3 3 4 5 7 8 8 8 9 8 6 8 10 10 9 6 6 6 5 5 5 4 4 4 4 3 3 3
3 3 2 4 7 5 5 5 4 3 4 4 3 3 5 5 4 4 4 5 6 6 7 7 9 9 7 7 8 8 6 7 7 6 5 4 4 4 4 3 4 4 4 4
4 4 2 5 6 5 4 3 3 2 2 2 1 3 5 6 4 5 5 6 6 6 6 7 8 9 8 8 7 6 5 7 6 5 5 4 4 4 4 4 5 6 6 6
4 6 6 6 5 3 5 4 2 2 2 2 1 2 2 5 5 5 5 5 6 6 6 6 7 7 7 7 7 6 6 7 7 5 5 4 4 4 4 4 5 8 10 11
Wind_Direction
99 78 232 224 201 193 171 169 226 250 139 96 110 132 161 160 147 155 157 154 160 159 137 131 127 118 116 110 99 91 94 82 82 78 78 76 62 40 39 39 44 45 50 63
33 263 240 197 172 162 161 163 207 87 66 96 96 28 193 184 184 180 175 176 178 165 149 142 131 128 126 122 111 106 98 86 78 88 96 101 100 73 57 27 31 29 33 45
207 244 211 150 159 154 193 186 190 160 88 53 73 342 233 214 173 182 188 185 185 182 176 167 157 153 143 138 137 125 107 90 83 91 93 82 62 46 32 21 15 7 21 45
230 249 200 178 201 165 228 212 157 136 120 339 90 276 267 211 214 203 198 193 193 187 179 174 169 167 165 162 148 131 119 104 95 98 104 108 106 96 48 8 1 8 25 42
234 208 179 198 210 164 170 87 100 102 110 62 29 179 281 194 228 221 205 199 196 191 183 181 180 175 168 160 150 139 123 106 96 97 107 105 102 106 75 46 39 29 21 28
237 223 197 186 100 124 118 74 60 52 65 355 234 176 273 222 215 211 201 199 196 191 185 180 173 160 158 154 149 147 135 124 114 113 115 123 127 126 104 75 56 32 16 15
289 280 220 133 103 80 94 93 46 2 6 260 219 213 252 242 215 200 194 194 192 185 179 176 171 170 169 167 166 160 153 160 157 141 135 142 147 144 139 137 115 81 24 4
203 272 224 177 164 166 168 142 157 197 223 270 253 241 255 253 222 199 190 182 178 180 181 182 181 178 177 175 172 168 171 178 175 163 161 159 157 152 162 172 175 188 226 268
183 243 268 189 163 138 140 173 157 129 136 301 279 280 299 218 171 174 173 173 182 185 184 184 179 177 177 177 179 177 176 183 184 177 169 167 171 177 189 196 189 216 252 266
161 204 260 187 99 59 133 140 108 118 141 253 292 274 249 230 206 190 187 191 191 182 182 182 178 179 178 177 174 171 175 184 181 175 182 179 187 193 194 186 203 227 263 284
149 164 263 98 172 171 119 112 111 114 147 157 247 270 227 209 196 190 198 196 188 182 184 181 177 174 167 162 165 172 177 177 178 183 187 180 190 189 185 197 221 233 255 273
156 131 214 254 248 169 162 165 149 151 194 172 181 265 264 214 199 187 192 191 186 183 180 172 166 160 162 169 173 178 180 182 188 184 181 186 186 181 193 220 239 241 257 273
139 120 92 344 341 13 152 153 148 126 118 151 175 263 305 202 186 189 185 182 176 170 165 160 160 167 174 177 178 181 184 189 187 177 177 182 189 195 213 231 245 247 257 276
123 127 163 195 219 201 196 173 156 134 146 188 219 248 278 226 203 199 189 180 171 169 168 167 172 178 179 178 179 181 186 186 181 176 179 190 203 209 221 234 245 252 256 267
120 162 207 230 231 193 211 196 176 184 184 185 224 227 244 221 207 201 182 168 164 170 175 179 181 181 177 177 180 182 184 183 178 177 188 204 210 214 223 237 249 256 260 263
101 154 162 262 233 203 228 230 201 212 198 212 235 254 246 216 160 168 174 172 179 185 186 185 182 179 182 183 183 182 184 182 173 183 198 205 206 215 225 236 245 254 264 273
124 135 134 240 298 81 255 228 200 204 200 184 210 236 201 179 191 192 187 185 190 191 187 185 186 187 188 187 181 184 185 174 175 191 200 201 203 216 227 232 235 248 259 264
143 128 136 162 104 227 243 243 197 200 225 207 226 238 204 211 207 194 182 185 191 189 187 188 186 186 186 180 177 175 166 170 182 194 202 203 204 217 225 225 238 247 248 252
144 139 130 136 191 267 288 248 182 187 251 216 218 237 167 110 81 278 207 194 195 190 185 184 182 178 172 172 169 160 166 175 185 198 206 207 204 211 217 229 242 243 240 254
75 105 121 139 170 230 246 243 183 133 273 242 190 181 150 126 141 248 206 190 193 183 175 168 159 151 164 170 159 162 175 182 198 205 208 206 200 205 217 230 239 233 233 251
80 80 132 163 209 256 255 261 117 159 240 257 183 173 165 177 194 217 160 172 171 166 162 155 154 164 176 164 160 172 180 198 206 201 200 202 203 209 220 228 229 235 246 260
174 162 182 156 193 252 275 139 176 218 265 278 203 184 185 196 158 135 151 154 151 150 148 153 160 169 164 161 164 176 195 204 192 185 193 203 207 213 213 217 238 239 238 257
195 191 189 191 214 242 244 228 246 224 244 251 215 207 182 171 178 167 154 151 155 157 157 157 161 159 160 168 171 184 201 183 173 180 196 207 213 216 213 215 235 245 238 245
244 166 173 261 269 261 259 257 260 238 238 248 213 184 169 172 175 164 157 157 157 156 159 154 152 158 171 178 184 195 185 166 169 187 203 208 215 228 227 223 226 231 237 241
225 165 194 261 279 304 297 254 255 265 270 256 193 173 171 162 165 167 168 170 167 157 155 155 161 170 179 178 189 194 172 162 176 194 207 214 219 227 237 238 231 229 233 225
205 185 188 229 237 224 274 294 289 271 284 260 154 128 147 159 164 154 162 167 159 155 152 157 166 173 177 174 187 189 175 171 177 196 211 215 219 226 232 248 266 246 242 250